This is the latest recevied weather packets stored in our database for station/object W6MAF. If no packets are shown the sender has not sent any weather packets the latest 10 day(s).
| Time | Temp. | Humidity | Pressure | Rain* | Wind** | Luminosity | Snow |
|---|---|---|---|---|---|---|---|
| 1787880186 | 29.44° C | 7% | - | 0 mm | 4.47 m/s, 276° | - | - |
| 1787879889 | 29.44° C | 7% | - | 0 mm | 4.47 m/s, 283° | - | - |
| 1787879591 | 29.44° C | 7% | - | 0 mm | 2.68 m/s, 312° | - | - |
| 1787879293 | 29.44° C | 7% | - | 0 mm | 4.47 m/s, 308° | - | - |
| 1787878995 | 29.44° C | 7% | - | 0 mm | 4.47 m/s, 321° | - | - |
| 1787878726 | 30° C | 7% | - | 0 mm | 4.47 m/s, 308° | - | - |
| 1787878694 | 30° C | 7% | - | 0 mm | 4.47 m/s, 308° | - | - |
| 1787878397 | 30° C | 6% | - | 0 mm | 5.81 m/s, 319° | - | - |
| 1787878099 | 30° C | 6% | - | 0 mm | 4.47 m/s, 319° | - | - |
| 1787877801 | 30° C | 6% | - | 0 mm | 4.02 m/s, 314° | - | - |
| 1787877503 | 30° C | 6% | - | 0 mm | 4.02 m/s, 291° | - | - |
| 1787877205 | 30.56° C | 6% | - | 0 mm | 4.47 m/s, 295° | - | - |
| 1787876904 | 31.11° C | 6% | - | 0 mm | 5.81 m/s, 323° | - | - |
| 1787876607 | 31.11° C | 6% | - | 0 mm | 4.47 m/s, 316° | - | - |
| 1787876309 | 31.67° C | 6% | - | 0 mm | 4.47 m/s, 304° | - | - |
| 1787876011 | 32.22° C | 6% | - | 0 mm | 5.81 m/s, 316° | - | - |
| 1787875713 | 32.22° C | 5% | - | 0 mm | 5.36 m/s, 311° | - | - |
| 1787875416 | 32.78° C | 5% | - | 0 mm | 5.81 m/s, 309° | - | - |
| 1787875114 | 32.78° C | 5% | - | 0 mm | 6.26 m/s, 312° | - | - |
| 1787874817 | 32.78° C | 5% | - | 0 mm | 5.81 m/s, 284° | - | - |
| 1787874519 | 32.78° C | 5% | - | 0 mm | 4.47 m/s, 297° | - | - |
| 1787874221 | 33.33° C | 5% | - | 0 mm | 5.36 m/s, 301° | - | - |
| 1787873923 | 33.33° C | 5% | - | 0 mm | 6.71 m/s, 307° | - | - |
| 1787873625 | 33.89° C | 5% | - | 0 mm | 4.02 m/s, 291° | - | - |
| 1787873324 | 33.89° C | 5% | - | 0 mm | 6.26 m/s, 280° | - | - |
* Rain latest hour (hover to see other rain measurements)
** Current wind speed in m/s (hover to see current wind gust speed)